• Processing (Info)

  • MPEC 2019-V123 : 2019 VO4

    The following Minor Planet Electronic Circular may be linked-to from your own Web pages, but must not otherwise be redistributed electronically.

    A form allowing access to any MPEC is at the bottom of this page.


    Read MPEC 2019-V122 Read MPEC 2019-V124


    M.P.E.C. 2019-V123                             Issued 2019 November 8, 01:48 UT
    
         The Minor Planet Electronic Circulars contain information on unusual
             minor planets and routine data on comets.  They are published
        on behalf of Division F of the International Astronomical Union by the
              Minor Planet Center, Smithsonian Astrophysical Observatory,
                              Cambridge, MA 02138, U.S.A.
    
                 Prepared using the Tamkin Foundation Computer Network
    
                                  MPC@CFA.HARVARD.EDU
                URL https://www.minorplanetcenter.net/    ISSN 1523-6714
    
                                    2019 VO4                                 
    
    
    Observations:
         K19V04O* C2019 11 05.35929 03 59 56.41 +19 50 47.7          20.9 GVEV123G96
         K19V04O  C2019 11 05.36442 03 59 57.25 +19 50 49.8          21.5 GVEV123G96
         K19V04O  C2019 11 05.36955 03 59 58.20 +19 50 52.6          22.2 GVEV123G96
         K19V04O  C2019 11 05.37467 03 59 59.06 +19 50 54.7          21.8 GVEV123G96
         K19V04O  C2019 11 05.46110 04 00 14.26 +19 51 36.8          23.0 GVEV123I52
         K19V04O  C2019 11 05.46694 04 00 15.31 +19 51 39.1          21.2 GVEV123I52
         K19V04O  C2019 11 05.46986 04 00 15.78 +19 51 39.8          22.7 GVEV123I52
         K19V04O  C2019 11 05.48372604 00 18.23 +19 51 44.9          21.4 GVEV123H01
         K19V04O  C2019 11 05.48702504 00 18.83 +19 51 46.5          21.9 GVEV123H01
         K19V04O  C2019 11 05.49785904 00 20.79 +19 51 51.3          22.3 GVEV123H01
         K19V04O  C2019 11 05.50895904 00 22.81 +19 51 56.0          21.5 GVEV123H01
         K19V04O  C2019 11 07.26156 04 05 57.40 +20 06 28.8          21.8 GVEV123G96
         K19V04O  C2019 11 07.26300 04 05 57.65 +20 06 28.9          21.6 GVEV123G96
         K19V04O  C2019 11 07.26445 04 05 57.86 +20 06 29.4          21.9 GVEV123G96
         K19V04O  C2019 11 07.26590 04 05 58.06 +20 06 30.9          22.4 GVEV123G96
    
    Observer details:
    G96 Mt. Lemmon Survey.  Observers E. J. Christensen, T. A. Pruyne.  Measurers 
       E. J. Christensen, G. A. Farneth, D. C. Fuls, A. R. Gibbs, A. D. Grauer, H. 
       Groeller, R. A. Kowalski, S. M. Larson, G. J. Leonard, T. A. Pruyne, D. 
       Rankin, R. L. Seaman, F. C. Shelly, K. W. Wierzchos.  1.5-m reflector + 10K 
       CCD.
    H01 Magdalena Ridge Observatory, Socorro.  Observers W. H. Ryan, E. V. Ryan.  
        Measurer W. H. Ryan.  2.4-m f/8.9 Ritchey-Chretien + CCD.
    I52 Steward Observatory, Mt. Lemmon Station.  Observer D. Rankin.  Measurers E. 
       J. Christensen, G. A. Farneth, D. C. Fuls, A. R. Gibbs, A. D. Grauer, H. 
       Groeller, R. A. Kowalski, S. M. Larson, G. J. Leonard, T. A. Pruyne, D. 
       Rankin, R. L. Seaman, F. C. Shelly, K. W. Wierzchos.  1.0-m reflector + CCD.
    
    Orbital elements:
    2019 VO4                                                 Earth MOID = 0.1666 AU
    Epoch 2019 Apr. 27.0 TT = JDT 2458600.5                 Bell
    M 313.79781              (2000.0)            P               Q
    n   0.24650994     Peri.  221.67244     +0.76088638     -0.64888513
    a   2.5191059      Node   178.78516     +0.59604132     +0.69888709
    e   0.5399353      Incl.    0.15231     +0.25648911     +0.30084037
    P   4.00           H   24.7           G   0.15           U   9
    Residuals in seconds of arc
    191105 G96  0.3+  0.5+    191105 I52  0.2+  0.1-    191105 H01  0.0   0.1-
    191105 G96  0.5-  0.0     191105 I52  0.5-  0.7-    191107 G96  0.3+  0.4+
    191105 G96  0.3+  0.2+    191105 H01  0.1+  0.0     191107 G96  0.4+  0.2-
    191105 G96  0.1-  0.3-    191105 H01  0.2+  0.1+    191107 G96  0.1-  0.5-
    191105 I52  0.0   0.3+    191105 H01  0.1+  0.1+    191107 G96  0.7-  0.3+
    
    Ephemeris:
    2019 VO4                 a,e,i = 2.52, 0.54, 0                   q = 1.1590
    Date    TT    R. A. (2000) Decl.     Delta      r    Elong.  Phase     V
    2019 10 09    02 20 52.6 +13 43 00   0.2017  1.1881   157.7    18.6    22.6
    ...
    2019 10 24    03 16 13.2 +17 33 30   0.1775  1.1621   158.7    18.1    22.2
    ...
    2019 11 01    03 45 20.0 +19 09 31   0.1755  1.1588   159.6    17.4    22.2
    ...
    2019 11 07    04 05 07.2 +20 04 36   0.1786  1.1613   160.8    16.3    22.2
    2019 11 08    04 08 10.9 +20 12 24   0.1795  1.1622   161.1    16.0    22.2
    2019 11 09    04 11 10.2 +20 19 50   0.1804  1.1631   161.4    15.8    22.2
    ...
    2019 11 15    04 27 25.4 +20 57 12   0.1885  1.1713   163.6    13.8    22.2
    ...
    2019 11 23    04 44 26.3 +21 31 06   0.2047  1.1884   167.6    10.3    22.3
    ...
    2019 12 08    05 04 25.6 +22 06 20   0.2532  1.2381   178.0     1.6    22.4
    
    A. U. Tomatic                (C) Copyright 2019 MPC           M.P.E.C. 2019-V123
    


    Read MPEC 2019-V122 Read MPEC 2019-V124


    MPEC number:

    Enter an MPEC number in one of the following forms:

    • 1997-B01 (the full form)
    • J97B01 (the packed version of the full form)
    • B01 (the abbreviated form)